Overview Statistics Trail Chart Weather Telemetry Raw packets
 

This is the latest recevied weather packets stored in our database for station/object WI0K. If no packets are shown the sender has not sent any weather packets the latest 10 day(s).

<< 6 7 8 9 10 11 12 >>
Time Temp. Humidity Pressure Rain* Wind** Luminosity Snow
1788615885 20° C 54% 1019.4 hPa 0 mm - 165 W/m² -
1788615584 20° C 56% 1019.4 hPa 0 mm - 149 W/m² -
1788615284 20° C 57% 1019.4 hPa 0 mm - 127 W/m² -
1788614983 20° C 58% 1019.4 hPa 0 mm - 116 W/m² -
1788614682 20° C 56% 1019.2 hPa 0 mm - 102 W/m² -
1788614381 19.44° C 57% 1019.2 hPa 0 mm - 82 W/m² -
1788614080 18.89° C 58% 1019.2 hPa 0 mm - 63 W/m² -
1788613780 18.89° C 59% 1019.1 hPa 0 mm - 59 W/m² -
1788613479 18.33° C 60% 1019.1 hPa 0 mm - 47 W/m² -
1788613178 18.33° C 61% 1019.2 hPa 0 mm - 33 W/m² -
1788612878 18.33° C 61% 1019.1 hPa 0 mm - 23 W/m² -
1788612577 17.78° C 64% 1019.1 hPa 0 mm - 17 W/m² -
1788612276 17.78° C 64% 1019 hPa 0 mm - 14 W/m² -
1788611976 17.78° C 65% 1019 hPa 0 mm - 11 W/m² -
1788611675 17.78° C 64% 1019 hPa 0 mm - 7 W/m² -
1788611374 17.78° C 66% 1019 hPa 0 mm - 4 W/m² -
1788611074 17.78° C 65% 1018.9 hPa 0 mm - 2 W/m² -
1788610773 17.78° C 65% 1018.9 hPa 0 mm - 1 W/m² -
1788610472 17.78° C 66% 1018.9 hPa 0 mm - 0 W/m² -
1788610171 17.78° C 65% 1018.9 hPa 0 mm - 0 W/m² -
1788609871 18.33° C 64% 1018.9 hPa 0 mm - 0 W/m² -
1788609570 18.33° C 65% 1018.9 hPa 0 mm - 0 W/m² -
1788609269 18.89° C 64% 1018.9 hPa 0 mm - 0 W/m² -
1788608969 18.89° C 60% 1018.8 hPa 0 mm - 0 W/m² -
1788608668 18.89° C 61% 1018.8 hPa 0 mm - 0 W/m² -

* Rain latest hour (hover to see other rain measurements)
** Current wind speed in m/s (hover to see current wind gust speed)